When you browse on this site, cookies collect data to enhance your experience and personalize the content and advertising you see.
Visit our Privacy Policy to learn more. By continuing to use the site, you agree to this use of cookies and data.
  • In Latvia
  • List of Countries
  • For 7 days
  • Water Temperature
  • Weather Map
  • Weather Widgets
  • user-avatar
    Login

    Hourly Weather Tobruk

    Today, 31 May, Sunday

    Time Temperature Precipitation Wind Pressure Humidity
    00:00 +20°C° 0 mm 6 mps 760 mmHg 66%
    01:00 +20°C° 0 mm 5 mps 759 mmHg 65%
    02:00 +20°C° 0 mm 5 mps 758 mmHg 65%
    03:00 +20°C° 0 mm 4 mps 759 mmHg 58%
    04:00 +21°C° 0 mm 4 mps 759 mmHg 51%
    05:00 +21°C° 0 mm 4 mps 759 mmHg 45%
    06:00 +22°C° 0 mm 3 mps 759 mmHg 42%
    07:00 +24°C° 0 mm 2 mps 758 mmHg 40%
    08:00 +25°C° 0 mm 1 mps 758 mmHg 37%
    09:00 +26°C° 0 mm 1 mps 759 mmHg 34%
    10:00 +28°C° 0 mm 2 mps 759 mmHg 31%
    11:00 +29°C° 0 mm 2 mps 759 mmHg 29%
    12:00 +30°C° 0 mm 2 mps 759 mmHg 29%
    13:00 +30°C° 0 mm 2 mps 758 mmHg 30%
    14:00 +31°C° 0 mm 3 mps 757 mmHg 30%
    15:00 +31°C° 0 mm 3 mps 757 mmHg 30%
    16:00 +32°C° 0 mm 4 mps 757 mmHg 30%
    17:00 +32°C° 0 mm 4 mps 756 mmHg 30%
    18:00 +29°C° 0 mm 5 mps 756 mmHg 36%
    19:00 +28°C° 0 mm 5 mps 756 mmHg 42%
    20:00 +26°C° 0 mm 6 mps 756 mmHg 48%
    21:00 +25°C° 0 mm 5 mps 756 mmHg 50%
    22:00 +25°C° 0 mm 4 mps 757 mmHg 52%
    23:00 +24°C° 0 mm 3 mps 757 mmHg 54%

    Tomorrow, 1 June, Monday

    Time Temperature Precipitation Wind Pressure Humidity
    00:00 +24°C° 0 mm 3 mps 757 mmHg 53%
    01:00 +24°C° 0 mm 3 mps 756 mmHg 52%
    02:00 +24°C° 0 mm 2 mps 756 mmHg 50%
    03:00 +23°C° 0 mm 2 mps 756 mmHg 51%
    04:00 +23°C° 0 mm 1 mps 756 mmHg 51%
    05:00 +23°C° 0 mm 1 mps 755 mmHg 52%
    06:00 +24°C° 0 mm 2 mps 756 mmHg 49%
    07:00 +25°C° 0 mm 2 mps 756 mmHg 46%
    08:00 +27°C° 0 mm 3 mps 756 mmHg 43%
    09:00 +27°C° 0 mm 4 mps 756 mmHg 45%
    10:00 +27°C° 0 mm 5 mps 756 mmHg 47%
    11:00 +28°C° 0 mm 5 mps 756 mmHg 49%
    12:00 +28°C° 0 mm 6 mps 755 mmHg 51%
    13:00 +27°C° 0 mm 6 mps 755 mmHg 53%
    14:00 +27°C° 0 mm 6 mps 755 mmHg 55%
    15:00 +26°C° 0 mm 7 mps 755 mmHg 58%
    16:00 +26°C° 0 mm 8 mps 755 mmHg 61%
    17:00 +24°C° 0 mm 8 mps 755 mmHg 64%
    18:00 +23°C° 0 mm 8 mps 755 mmHg 69%
    19:00 +22°C° 0 mm 8 mps 756 mmHg 74%
    20:00 +21°C° 0 mm 7 mps 756 mmHg 79%
    21:00 +21°C° 0 mm 7 mps 756 mmHg 80%
    22:00 +21°C° 0 mm 6 mps 756 mmHg 82%
    23:00 +20°C° 0 mm 5 mps 757 mmHg 83%

    Day after tomorrow, 2 June, Tuesday

    Time Temperature Precipitation Wind Pressure Humidity
    00:00 +20°C° 0 mm 5 mps 756 mmHg 84%
    01:00 +20°C° 0 mm 5 mps 756 mmHg 85%
    02:00 +19°C° 0 mm 5 mps 756 mmHg 87%
    03:00 +19°C° 0 mm 5 mps 755 mmHg 87%
    04:00 +19°C° 0 mm 5 mps 755 mmHg 87%
    05:00 +19°C° 0 mm 5 mps 755 mmHg 87%
    06:00 +20°C° 0 mm 5 mps 756 mmHg 81%
    07:00 +21°C° 0 mm 6 mps 756 mmHg 75%
    08:00 +22°C° 0 mm 6 mps 756 mmHg 68%
    09:00 +22°C° 0 mm 6 mps 756 mmHg 62%
    10:00 +23°C° 0 mm 6 mps 756 mmHg 56%
    11:00 +24°C° 0 mm 6 mps 756 mmHg 49%
    12:00 +26°C° 0 mm 7 mps 756 mmHg 48%
    13:00 +26°C° 0 mm 7 mps 756 mmHg 48%
    14:00 +26°C° 0 mm 7 mps 756 mmHg 47%
    15:00 +24°C° 0 mm 7 mps 756 mmHg 50%
    16:00 +24°C° 0 mm 7 mps 756 mmHg 54%
    17:00 +23°C° 0 mm 6 mps 755 mmHg 57%
    18:00 +22°C° 0 mm 6 mps 756 mmHg 62%
    19:00 +22°C° 0 mm 6 mps 756 mmHg 68%
    20:00 +21°C° 0 mm 6 mps 756 mmHg 73%
    21:00 +21°C° 0 mm 6 mps 756 mmHg 75%
    22:00 +20°C° 0 mm 6 mps 757 mmHg 76%
    23:00 +20°C° 0 mm 6 mps 757 mmHg 78%

    3 June, Wednesday

    Time Temperature Precipitation Wind Pressure Humidity
    00:00 +20°C° 0 mm 5 mps 757 mmHg 80%
    01:00 +20°C° 0 mm 5 mps 756 mmHg 81%
    02:00 +19°C° 0 mm 5 mps 756 mmHg 82%
    03:00 +19°C° 0 mm 4 mps 756 mmHg 83%
    04:00 +19°C° 0 mm 4 mps 756 mmHg 84%
    05:00 +18°C° 0 mm 4 mps 756 mmHg 85%
    06:00 +19°C° 0 mm 4 mps 756 mmHg 80%
    07:00 +20°C° 0 mm 4 mps 757 mmHg 74%
    08:00 +22°C° 0 mm 5 mps 757 mmHg 68%
    09:00 +22°C° 0 mm 4 mps 757 mmHg 64%
    10:00 +23°C° 0 mm 4 mps 757 mmHg 59%
    11:00 +25°C° 0 mm 4 mps 758 mmHg 55%
    12:00 +25°C° 0 mm 4 mps 757 mmHg 53%
    13:00 +26°C° 0 mm 5 mps 757 mmHg 52%
    14:00 +26°C° 0 mm 5 mps 757 mmHg 50%
    15:00 +26°C° 0 mm 5 mps 757 mmHg 52%
    16:00 +25°C° 0 mm 5 mps 757 mmHg 55%
    17:00 +23°C° 0 mm 6 mps 757 mmHg 57%
    18:00 +23°C° 0 mm 5 mps 757 mmHg 63%
    19:00 +22°C° 0 mm 5 mps 757 mmHg 68%
    20:00 +21°C° 0 mm 5 mps 757 mmHg 74%
    21:00 +21°C° 0 mm 5 mps 758 mmHg 74%
    22:00 +20°C° 0 mm 4 mps 758 mmHg 75%
    23:00 +20°C° 0 mm 4 mps 759 mmHg 76%

    4 June, Thursday

    Time Temperature Precipitation Wind Pressure Humidity
    00:00 +20°C° 0 mm 4 mps 758 mmHg 77%
    01:00 +20°C° 0 mm 4 mps 758 mmHg 78%
    02:00 +19°C° 0 mm 3 mps 758 mmHg 79%
    03:00 +19°C° 0 mm 3 mps 758 mmHg 80%
    04:00 +19°C° 0 mm 2 mps 758 mmHg 81%
    05:00 +18°C° 0 mm 2 mps 757 mmHg 82%
    06:00 +20°C° 0 mm 2 mps 758 mmHg 76%
    07:00 +22°C° 0 mm 1 mps 758 mmHg 70%
    08:00 +23°C° 0 mm 1 mps 759 mmHg 63%
    09:00 +24°C° 0 mm 1 mps 759 mmHg 57%
    10:00 +25°C° 0 mm 1 mps 759 mmHg 50%
    11:00 +27°C° 0 mm 1 mps 759 mmHg 44%
    12:00 +27°C° 0 mm 2 mps 759 mmHg 43%
    13:00 +27°C° 0 mm 3 mps 759 mmHg 43%
    14:00 +28°C° 0 mm 4 mps 758 mmHg 42%
    15:00 +27°C° 0 mm 5 mps 758 mmHg 43%
    16:00 +27°C° 0 mm 5 mps 758 mmHg 43%
    17:00 +27°C° 0 mm 5 mps 758 mmHg 43%
    18:00 +26°C° 0 mm 5 mps 758 mmHg 50%
    19:00 +23°C° 0 mm 4 mps 758 mmHg 57%
    20:00 +22°C° 0 mm 4 mps 759 mmHg 64%
    21:00 +22°C° 0 mm 3 mps 759 mmHg 66%
    22:00 +21°C° 0 mm 3 mps 759 mmHg 68%
    23:00 +21°C° 0 mm 3 mps 760 mmHg 71%

    5 June, Friday

    Time Temperature Precipitation Wind Pressure Humidity
    00:00 +21°C° 0 mm 2 mps 759 mmHg 71%
    01:00 +20°C° 0 mm 2 mps 759 mmHg 72%
    02:00 +20°C° 0 mm 2 mps 759 mmHg 73%
    03:00 +19°C° 0 mm 2 mps 759 mmHg 72%
    04:00 +20°C° 0 mm 1 mps 759 mmHg 71%
    05:00 +19°C° 0 mm 1 mps 759 mmHg 70%
    06:00 +21°C° 0 mm 1 mps 759 mmHg 61%
    07:00 +23°C° 0 mm 2 mps 759 mmHg 52%
    08:00 +25°C° 0 mm 2 mps 760 mmHg 43%
    09:00 +27°C° 0 mm 2 mps 760 mmHg 37%
    10:00 +29°C° 0 mm 1 mps 760 mmHg 32%
    11:00 +31°C° 0 mm 1 mps 760 mmHg 26%
    12:00 +31°C° 0 mm 2 mps 760 mmHg 26%
    13:00 +33°C° 0 mm 3 mps 759 mmHg 26%
    14:00 +34°C° 0 mm 4 mps 759 mmHg 26%
    15:00 +33°C° 0 mm 4 mps 759 mmHg 27%
    16:00 +33°C° 0 mm 5 mps 759 mmHg 29%
    17:00 +32°C° 0 mm 5 mps 758 mmHg 30%
    18:00 +29°C° 0 mm 5 mps 759 mmHg 35%
    19:00 +28°C° 0 mm 4 mps 759 mmHg 40%
    20:00 +26°C° 0 mm 4 mps 759 mmHg 46%
    21:00 +26°C° 0 mm 4 mps 759 mmHg 46%
    22:00 +25°C° 0 mm 4 mps 760 mmHg 46%
    23:00 +25°C° 0 mm 4 mps 760 mmHg 46%
    Show more